CZ-6A DEB, 54927

Orbit data source: Space-Track

CZ-6A DEB, 54927 is space debris in SSO originally from a launch on Fri, 11 Nov 2022 UTC launched from the Taiyaun Space Center, China (TSC). Debris objects in space refer to the collection of defunct objects orbiting the Earth. Examples of debris include non-operational satellites, rocket bodies, and fragments generated from explosions, collisions, or faulty payload assembly.

Loading next visibility...
Identifier
54927, 2022-151RQ
Orbit
SSO
Country
Flag of CNCN / PRC
Related business
Manufacturer
SAST
Mission
Spacecraft
Bus & Motor
Unknown
Mass
Unknown
Launch date (UTC)
2022-11-11 (4 years ago)
Launch vehicle
Unknown
Launch site
Taiyaun Space Center, China (TSC)
Object type
Payload
Rocket body
Debris
Shape & HBR
Unknown shape, 0.1 m
Radar Cross Section
Small (<0.1 m²)

Expand to show TLE details & history
Last TLE update: 2 days ago

TLE from 2 days ago
0 CZ-6A DEB
1 54927U 22151RQ  26171.45403588  .00012577  00000-0  16438-2 0  9998
2 54927  98.6355 245.6367 0063242 250.1257 109.3130 14.79205258190748
Epoch: 2026-06-20T10:53Z
TLE epoch observation values (Epoch: 2026-06-20T10:53:48.700Z)
Latitude
0.00004°
Longitude
173.51535°
Altitude
649.745 km
Speed
7.525 km/s
True Right ascension
16h 22m 32s
True Declination
0° 00' 00"
Sunlit
Object was in full shadow at epoch
Visualization orbit readout
Latitude
Unknown
Longitude
Unknown
Altitude
Unknown
Speed
Unknown
Apparent Right ascension
Unknown
Apparent Declination
Unknown
Sunlit
N/A
Visualization observer readout
Local Sidereal Time
21:30:20
Azimuth
Unknown
Elevation
Unknown
Doppler factor
Unknown
Orbital elements
Apogee altitude
673.224 km
Perigee altitude
584.596 km
Semi-major axis
7,007.047 km
Eccentricity
0.00632
Inclination
98.6355°
RAAN
245.6367°
Arg. of periapsis
250.1257°
True anomaly
109.99512°
Mean anomaly
109.313°
Eccentric anomaly
109.65424°
Mean motion
3.70033 °/min
Orbital period
97.29 mins
BSTAR
0.0016438
Loading maneuver chart data...
Computing Atmospheric mass density...
Loading historical data...
Loading historical data...
Loading historical data...
Loading historical data...
Loading historical data...
Loading historical data...
Loading historical data...

Documentation

Showing up to 5 results
|